Wind_Speed
41 40 40 38 37 36 31 27 18 19 18 14 10 10 15 12 7 10 13 17 18 17 15 9 11 16 19 13 9 11 12 16 12 11 11 9 8 5 5 6 7 10 11 13 12 11 17 17 19
45 43 42 40 39 37 33 28 21 19 21 17 22 17 18 14 11 16 13 13 18 19 16 12 15 21 23 15 10 13 15 14 11 7 9 9 8 7 7 9 9 11 13 13 12 17 20 20 21
48 46 44 45 39 37 37 31 22 18 18 16 14 16 16 23 25 18 18 17 10 17 22 18 18 15 16 9 8 9 13 12 10 8 6 9 9 7 8 8 8 10 13 15 16 17 19 20 23
47 49 46 45 47 41 39 34 24 27 16 13 13 17 17 18 22 18 18 19 20 12 15 11 14 11 10 10 11 12 12 11 9 9 9 12 12 11 10 11 11 12 16 15 15 17 20 21 25
43 48 48 48 47 47 40 34 26 24 22 15 15 19 21 22 19 17 21 13 12 9 5 6 5 8 8 8 9 7 10 14 10 9 9 13 15 16 13 12 14 13 13 13 15 18 22 26 24
46 45 46 47 49 49 47 40 36 30 26 24 20 18 21 25 26 21 18 14 10 12 8 8 5 1 2 6 9 9 9 6 1 2 6 12 16 18 19 17 14 12 11 14 16 19 23 24 24
43 46 43 46 49 50 47 46 40 37 27 21 24 25 26 30 31 27 18 14 11 8 5 3 4 4 6 9 9 8 7 3 6 11 13 14 11 12 13 15 11 7 14 15 16 19 18 17 13
38 44 45 43 47 48 49 47 45 41 33 25 25 25 26 28 26 24 17 13 10 11 9 5 5 6 8 9 10 9 7 8 9 14 14 12 10 10 10 8 9 11 13 14 17 16 14 14 12
36 41 42 43 47 46 46 50 48 46 40 25 23 21 24 24 23 22 21 16 15 14 10 7 7 10 11 12 12 12 12 11 12 14 14 13 11 12 11 10 11 15 17 18 16 17 15 14 16
35 37 39 41 42 45 46 49 48 47 45 35 20 20 24 21 21 20 18 18 18 18 16 14 14 16 16 15 15 16 17 17 16 15 15 16 14 13 15 15 17 23 23 14 16 17 16 17 16
31 36 39 37 42 46 46 46 51 47 48 45 30 16 19 21 21 18 18 19 20 21 22 20 19 21 20 17 17 20 17 17 15 15 15 19 17 17 19 15 18 22 16 14 15 16 18 19 18
34 36 36 36 39 43 45 43 44 49 49 50 43 32 16 19 21 19 21 21 21 20 21 23 23 22 21 21 20 20 20 19 19 17 18 19 20 20 16 17 20 22 20 21 17 19 19 20 26
36 41 36 34 41 40 43 47 46 44 48 53 50 42 35 20 21 21 23 23 22 24 22 23 24 27 28 29 28 21 21 21 21 19 18 21 23 22 21 21 23 23 24 26 26 22 23 24 30
38 44 39 36 43 39 37 45 45 46 48 49 49 48 43 35 18 21 26 26 27 24 21 24 24 25 25 29 29 27 22 21 20 23 24 26 26 29 27 24 25 27 28 25 25 25 27 32 35
43 39 37 42 43 40 36 43 46 46 47 50 50 49 49 46 36 27 22 30 30 29 24 22 26 25 26 27 29 28 27 24 24 25 26 27 29 27 28 26 28 29 27 27 27 27 32 33 40
38 43 44 50 44 40 42 49 41 47 48 46 50 51 50 50 44 38 27 24 32 32 31 28 25 28 31 31 30 30 29 29 29 30 30 28 30 31 30 27 29 29 26 26 29 33 35 35 40
42 45 46 43 46 41 41 46 49 43 49 46 47 49 50 49 48 44 33 29 30 33 34 32 31 28 27 32 31 28 32 33 32 32 31 32 33 29 33 33 30 33 35 36 38 39 39 42 48
45 47 50 49 45 49 49 50 50 47 48 52 48 46 46 50 48 44 41 34 31 33 35 38 35 26 30 31 32 33 31 32 34 33 34 33 34 34 34 37 37 37 38 40 42 41 44 47 49
50 52 50 49 44 53 56 53 47 52 47 49 52 48 46 45 46 46 40 38 34 34 36 35 37 36 29 33 38 37 36 36 35 38 37 34 36 38 39 38 38 40 42 42 43 46 46 48 51
55 55 54 56 47 51 55 54 54 51 50 50 52 48 50 46 48 46 40 40 40 35 36 36 36 38 36 36 40 43 41 41 43 40 37 37 39 42 44 42 45 44 45 43 45 47 50 55 57
58 58 58 58 54 54 56 59 57 55 52 52 51 49 50 46 50 51 45 42 40 41 39 36 36 38 39 37 36 39 42 42 40 37 38 39 41 44 46 44 45 45 45 44 47 51 52 54 58
58 60 58 62 60 53 58 61 59 57 54 51 51 51 52 46 51 51 48 46 41 38 39 40 39 38 39 36 36 37 39 42 42 41 40 39 38 43 43 44 45 43 41 44 47 49 52 53 57
68 67 59 64 60 58 63 58 62 59 58 53 50 54 53 51 50 50 50 47 45 38 41 40 38 37 39 40 38 37 40 41 41 40 39 38 38 44 44 43 42 44 44 45 46 50 51 52 48
71 71 66 61 61 57 66 60 66 60 58 57 56 55 53 52 51 50 48 47 47 42 43 43 37 35 35 39 41 43 43 43 42 42 40 40 40 40 42 42 45 48 49 49 51 53 50 49 49
75 77 72 66 64 59 63 59 67 63 59 58 62 59 54 54 55 52 50 47 47 42 42 44 41 38 36 36 40 44 45 44 46 46 44 43 41 44 48 49 50 54 51 54 54 54 53 53 54
85 81 75 72 66 65 64 62 67 68 64 61 62 61 59 58 60 54 51 49 51 46 42 43 45 44 43 41 39 42 44 46 48 47 48 48 50 51 51 53 56 52 54 54 55 56 56 60 64
89 85 81 77 71 66 67 67 70 73 68 68 65 64 61 62 62 56 50 48 47 44 45 46 43 47 48 44 42 44 45 48 51 53 53 53 50 54 58 57 55 58 57 57 60 60 62 68 69
92 89 85 77 70 72 65 69 71 72 74 74 72 68 65 61 60 56 53 51 48 48 48 49 47 52 50 47 44 43 46 48 50 55 56 58 60 60 62 62 64 62 62 61 61 65 69 70 71
95 91 90 89 79 77 70 66 69 77 78 75 79 76 70 64 60 57 57 55 52 53 47 50 49 52 58 57 54 49 49 54 53 56 59 58 59 61 67 69 68 68 69 67 67 70 70 72 71
98 94 94 91 84 82 70 66 73 77 75 78 80 82 76 71 66 63 62 55 52 54 47 49 49 49 52 57 61 57 56 56 53 60 61 58 58 61 64 66 67 68 70 72 73 74 72 70 73
Wind_Direction
11 13 13 13 12 8 20 7 358 345 313 294 324 324 341 317 315 293 288 284 291 291 299 272 310 314 295 287 285 281 288 286 280 285 293 300 305 303 291 283 294 310 316 318 325 327 325 321 322
10 16 17 15 15 9 18 10 354 332 340 317 312 322 339 342 342 307 302 283 262 275 287 266 293 281 276 261 262 262 268 266 265 273 279 289 285 284 284 297 311 312 312 313 317 316 321 321 316
12 16 18 18 17 9 13 16 13 333 342 340 324 318 336 343 337 326 317 314 307 285 256 252 269 292 279 264 254 242 247 255 265 264 273 284 282 285 293 303 302 300 302 299 308 318 314 310 311
11 9 10 14 17 11 10 11 7 4 340 299 297 314 331 328 328 330 324 311 296 293 256 259 287 284 274 269 243 248 245 259 258 263 293 283 279 276 285 293 290 292 297 301 307 307 314 314 312
9 6 8 8 13 12 9 12 359 351 2 339 329 322 311 309 325 311 329 321 304 279 293 246 285 296 276 238 235 246 263 272 272 293 302 296 292 286 287 294 305 299 300 301 307 315 313 309 320
3 7 10 12 14 14 6 5 2 11 2 356 344 330 319 319 316 320 337 342 302 283 267 287 298 158 244 233 242 248 252 249 4 320 298 303 289 283 290 299 301 298 300 301 311 317 314 319 324
5 10 11 10 12 14 10 6 2 1 11 358 346 332 324 315 309 314 321 330 322 291 283 248 188 245 246 254 252 247 246 236 330 314 312 313 294 288 298 300 301 313 306 308 318 312 311 312 318
356 8 4 9 7 14 12 9 7 2 7 357 341 338 327 309 313 315 308 323 323 295 288 207 224 245 264 262 275 279 281 268 311 323 321 322 318 301 298 310 301 295 306 311 305 296 295 298 322
352 358 2 0 2 6 11 13 10 10 14 5 336 339 327 318 313 308 296 303 317 319 287 239 244 254 275 277 301 301 293 288 296 315 317 321 322 321 304 289 290 291 304 303 278 268 279 282 303
341 352 0 358 357 0 5 8 11 10 11 13 354 329 334 324 316 306 302 296 301 303 302 280 270 256 266 279 302 301 299 293 295 302 310 309 307 305 297 297 276 289 296 288 267 266 260 289 297
331 337 352 352 354 358 359 3 7 7 11 10 15 341 319 335 322 317 299 308 286 291 296 291 282 276 276 286 294 294 299 293 288 297 304 310 293 293 297 302 304 292 274 279 271 254 279 284 297
329 327 339 346 347 354 357 358 2 5 6 7 7 13 334 325 318 308 300 297 284 293 285 284 282 281 277 280 280 295 295 292 292 290 300 308 297 285 285 290 311 308 287 276 260 263 272 286 306
330 328 327 338 340 347 352 355 357 357 358 1 4 4 12 350 314 306 303 304 303 283 282 280 284 284 281 278 269 282 296 294 291 286 296 298 305 292 285 288 305 305 296 284 268 263 270 291 298
325 328 325 333 334 339 343 346 354 350 353 357 359 359 359 9 343 302 299 303 296 300 280 277 285 286 284 284 283 271 296 294 294 281 287 293 301 292 276 282 298 297 298 276 259 269 276 291 295
311 326 320 328 327 328 338 342 340 348 348 351 354 353 355 358 360 352 302 289 297 297 300 285 271 278 279 278 283 277 290 297 299 294 287 295 302 289 278 281 297 296 293 286 261 271 280 292 299
311 314 313 315 320 320 329 337 335 335 345 345 347 352 350 353 354 352 341 308 292 292 296 296 292 282 283 281 282 282 285 298 299 296 295 296 300 292 287 290 295 294 283 278 269 271 279 292 300
300 309 311 318 315 316 317 330 333 334 335 339 342 344 346 348 349 350 351 334 301 295 289 289 295 294 287 287 284 281 283 287 292 293 294 293 297 295 283 285 292 289 286 283 281 282 289 282 294
293 298 304 310 311 309 317 320 326 331 330 332 333 340 339 345 344 345 346 343 321 304 296 290 288 294 284 288 290 288 282 284 287 291 293 295 293 294 291 289 291 294 288 289 286 285 287 282 291
288 289 296 302 307 304 311 312 320 326 326 327 328 330 336 334 340 342 340 340 332 313 306 296 294 291 295 288 285 288 287 283 281 286 284 290 290 290 289 292 293 293 298 296 291 285 283 288 295
284 287 293 295 299 301 304 306 314 320 318 320 323 321 328 332 329 335 337 338 339 324 316 311 296 292 291 291 289 287 283 281 283 282 285 285 287 288 292 291 293 292 295 294 288 289 290 287 289
278 284 290 291 293 299 301 302 309 312 311 313 316 314 322 327 329 333 336 335 333 336 324 313 307 298 294 292 289 289 288 288 287 286 284 286 286 288 291 290 292 294 295 288 292 294 292 294 292
279 281 284 287 291 293 298 299 305 308 308 309 309 313 318 321 325 326 330 331 330 326 330 328 318 308 297 298 294 287 288 288 287 287 288 288 289 291 292 291 292 295 291 289 296 296 295 293 298
276 281 279 284 287 292 295 298 301 302 304 303 304 310 314 316 321 321 325 326 331 319 323 328 325 317 307 307 297 295 293 292 287 283 286 289 289 292 291 289 287 291 294 291 293 295 296 297 294
276 277 275 280 283 289 290 298 295 296 298 297 302 302 307 312 316 315 319 318 323 324 315 318 327 313 312 306 301 298 296 296 288 285 288 286 286 285 284 286 288 291 288 287 289 292 294 300 303
276 275 277 276 279 280 287 295 291 293 292 293 300 299 303 307 310 310 312 312 315 319 319 312 322 312 311 314 307 301 298 298 297 292 289 287 285 284 281 284 286 287 283 283 286 291 296 295 299
273 276 277 277 273 279 285 288 287 290 288 287 293 294 298 302 303 306 307 311 314 314 312 308 311 309 306 309 310 304 299 296 295 294 292 289 286 284 282 283 283 284 282 283 286 293 295 295 297
269 275 273 274 274 279 282 283 286 287 286 286 287 290 292 298 302 304 305 305 304 302 300 298 298 292 294 296 297 296 298 296 293 292 289 285 284 285 289 285 285 287 287 286 288 291 295 293 292
267 268 273 276 278 274 276 279 281 282 285 285 286 285 285 293 298 301 298 300 297 300 297 298 294 293 285 290 285 288 287 289 290 290 286 284 285 287 286 284 287 289 288 289 289 289 290 288 289
266 269 272 274 277 276 273 275 275 281 282 282 282 283 285 292 291 298 296 295 295 301 294 293 292 295 291 285 286 290 291 288 290 294 285 285 286 286 287 289 288 288 286 288 285 285 284 285 285
266 269 272 273 274 269 275 272 276 275 275 276 279 282 285 291 288 299 295 287 286 298 287 290 288 296 293 291 284 283 287 295 295 292 293 289 282 283 284 284 285 284 283 284 285 284 286 283 282
Height
10863 10858 10852 10848 10844 10839 10838 10834 10831 10828 10826 10824 10825 10823 10821 10821 10821 10821 10820 10818 10816 10816 10818 10819 10820 10819 10818 10817 10816 10816 10816 10815 10813 10812 10811 10811 10811 10810 10809 10809 10809 10809 10808 10808 10808 10806 10805 10805 10804
10865 10859 10856 10850 10843 10839 10839 10834 10829 10829 10826 10826 10825 10821 10819 10819 10819 10818 10818 10816 10815 10815 10816 10817 10817 10817 10816 10815 10815 10814 10813 10812 10811 10810 10809 10809 10809 10808 10808 10807 10808 10808 10806 10805 10804 10803 10802 10801 10800
10867 10862 10859 10852 10846 10838 10836 10835 10834 10828 10827 10825 10825 10821 10818 10815 10816 10815 10815 10813 10813 10812 10811 10814 10816 10815 10814 10812 10812 10811 10811 10811 10810 10809 10809 10809 10808 10808 10807 10807 10806 10805 10804 10803 10801 10801 10799 10798 10796
10870 10864 10859 10854 10847 10841 10835 10833 10833 10831 10828 10827 10824 10820 10817 10818 10817 10815 10814 10812 10811 10811 10811 10813 10812 10811 10810 10809 10808 10809 10810 10810 10810 10809 10809 10808 10807 10806 10805 10805 10805 10804 10802 10800 10799 10798 10797 10794 10793
10872 10866 10860 10855 10850 10842 10838 10835 10832 10831 10830 10825 10821 10819 10817 10817 10818 10816 10812 10809 10808 10809 10810 10811 10809 10809 10807 10807 10807 10808 10809 10809 10807 10807 10807 10806 10805 10803 10803 10803 10802 10801 10800 10799 10797 10795 10793 10791 10790
10874 10867 10862 10857 10851 10845 10837 10835 10829 10828 10824 10821 10820 10818 10816 10813 10814 10814 10811 10809 10808 10808 10808 10808 10807 10807 10806 10806 10807 10807 10807 10807 10806 10805 10804 10802 10800 10799 10799 10799 10799 10799 10798 10796 10795 10793 10790 10789 10787
10877 10871 10865 10859 10853 10849 10840 10833 10829 10824 10824 10822 10820 10816 10813 10812 10811 10811 10810 10809 10808 10808 10808 10806 10806 10806 10805 10805 10806 10805 10805 10804 10803 10803 10801 10798 10797 10796 10796 10796 10796 10796 10794 10792 10791 10790 10788 10787 10786
10876 10873 10869 10863 10857 10851 10845 10837 10831 10825 10823 10818 10817 10817 10813 10812 10810 10808 10808 10807 10807 10807 10806 10805 10805 10805 10804 10804 10804 10803 10802 10801 10800 10800 10798 10796 10795 10793 10793 10793 10793 10792 10790 10788 10788 10786 10785 10784 10783
10874 10872 10869 10866 10861 10855 10848 10842 10834 10828 10824 10820 10817 10816 10814 10811 10807 10806 10806 10805 10804 10803 10803 10804 10804 10803 10803 10802 10802 10801 10799 10798 10798 10797 10796 10794 10793 10792 10790 10790 10790 10788 10787 10785 10783 10782 10781 10780 10780
10875 10872 10869 10866 10863 10858 10851 10844 10840 10831 10825 10822 10818 10817 10816 10813 10807 10805 10803 10802 10801 10801 10802 10802 10802 10801 10801 10799 10798 10797 10797 10796 10795 10794 10792 10790 10790 10788 10788 10787 10786 10784 10782 10780 10778 10777 10777 10777 10775
10876 10872 10868 10866 10864 10860 10854 10846 10839 10832 10827 10822 10820 10816 10816 10814 10808 10804 10803 10802 10801 10800 10799 10799 10798 10797 10797 10797 10796 10795 10794 10792 10791 10789 10788 10787 10786 10786 10784 10783 10781 10779 10777 10775 10774 10774 10773 10772 10770
10874 10871 10867 10863 10861 10860 10855 10850 10845 10836 10829 10822 10818 10817 10814 10812 10808 10805 10801 10800 10799 10798 10796 10795 10795 10794 10793 10793 10793 10791 10789 10787 10786 10785 10784 10783 10782 10781 10780 10779 10777 10774 10772 10771 10769 10769 10768 10766 10765
10869 10868 10867 10863 10858 10856 10855 10849 10845 10841 10834 10826 10818 10814 10811 10808 10807 10805 10802 10798 10795 10794 10794 10792 10791 10791 10790 10789 10789 10788 10786 10784 10782 10780 10780 10780 10779 10777 10776 10774 10771 10769 10767 10765 10764 10763 10762 10761 10758
10865 10864 10862 10860 10858 10854 10851 10847 10844 10838 10834 10829 10821 10816 10811 10808 10805 10802 10798 10796 10794 10792 10790 10790 10788 10787 10786 10785 10784 10784 10782 10779 10778 10777 10776 10776 10775 10773 10771 10769 10766 10763 10760 10759 10757 10757 10756 10754 10751
10860 10858 10858 10855 10855 10850 10848 10847 10840 10837 10831 10824 10820 10815 10810 10807 10803 10799 10795 10792 10790 10790 10787 10787 10784 10783 10781 10780 10779 10778 10777 10776 10775 10773 10772 10771 10769 10767 10765 10763 10760 10757 10754 10752 10751 10750 10749 10747 10744
10856 10854 10854 10852 10850 10843 10842 10844 10840 10835 10830 10824 10818 10814 10807 10802 10800 10796 10790 10788 10786 10785 10783 10781 10780 10777 10776 10774 10774 10773 10772 10771 10769 10767 10766 10765 10763 10761 10759 10757 10755 10752 10749 10747 10745 10744 10742 10740 10737
10849 10848 10847 10849 10846 10839 10833 10836 10837 10835 10827 10825 10821 10814 10807 10801 10794 10791 10789 10784 10782 10780 10779 10779 10777 10776 10773 10769 10767 10767 10767 10765 10763 10761 10760 10759 10757 10755 10753 10751 10749 10746 10743 10740 10739 10738 10735 10732 10728
10843 10841 10840 10842 10843 10833 10830 10827 10829 10830 10824 10818 10818 10818 10809 10801 10796 10788 10783 10780 10777 10774 10773 10773 10774 10773 10771 10767 10762 10760 10760 10759 10757 10755 10754 10752 10750 10747 10745 10743 10741 10739 10737 10733 10732 10730 10728 10724 10722
10836 10833 10831 10834 10837 10828 10826 10818 10823 10823 10820 10815 10810 10809 10808 10805 10797 10788 10781 10776 10773 10768 10766 10766 10765 10766 10764 10761 10758 10755 10754 10752 10750 10748 10746 10745 10742 10739 10737 10735 10733 10732 10729 10726 10724 10722 10720 10718 10714
10828 10825 10825 10822 10827 10827 10822 10809 10816 10817 10812 10810 10806 10801 10800 10798 10796 10792 10783 10773 10767 10765 10761 10760 10758 10756 10756 10753 10751 10748 10747 10745 10744 10741 10740 10738 10735 10732 10730 10728 10725 10723 10721 10718 10716 10715 10713 10709 10704
10818 10817 10818 10813 10818 10818 10815 10806 10810 10811 10805 10801 10800 10794 10792 10788 10784 10782 10780 10774 10766 10759 10756 10753 10751 10747 10746 10745 10742 10739 10737 10736 10734 10734 10732 10729 10726 10724 10722 10720 10717 10714 10712 10709 10707 10706 10704 10700 10694
10807 10808 10811 10804 10808 10809 10807 10802 10799 10800 10798 10794 10789 10786 10783 10781 10779 10775 10772 10771 10766 10759 10752 10746 10742 10739 10737 10736 10734 10732 10730 10727 10725 10724 10722 10720 10716 10714 10712 10711 10708 10706 10704 10703 10700 10697 10693 10690 10686
10793 10794 10803 10797 10796 10800 10794 10799 10793 10792 10788 10786 10780 10774 10774 10773 10770 10769 10767 10763 10759 10755 10750 10745 10739 10734 10732 10729 10727 10725 10723 10720 10718 10715 10712 10709 10705 10703 10702 10700 10699 10698 10696 10694 10691 10688 10683 10681 10676
10778 10780 10786 10791 10788 10793 10781 10791 10779 10784 10782 10774 10774 10772 10767 10764 10762 10760 10759 10756 10752 10748 10743 10737 10733 10728 10725 10720 10718 10715 10713 10711 10709 10706 10704 10701 10698 10697 10693 10691 10690 10688 10685 10683 10680 10678 10674 10669 10668
10760 10760 10771 10780 10778 10782 10775 10782 10766 10772 10773 10767 10763 10761 10760 10759 10755 10752 10749 10747 10744 10740 10735 10730 10726 10721 10716 10712 10708 10706 10704 10702 10699 10697 10694 10692 10689 10686 10683 10682 10681 10678 10675 10671 10670 10666 10662 10657 10654
10737 10746 10760 10760 10765 10770 10770 10772 10757 10756 10761 10758 10755 10747 10747 10749 10748 10745 10742 10738 10734 10731 10728 10724 10719 10713 10707 10702 10699 10696 10694 10691 10688 10687 10685 10681 10678 10674 10672 10671 10669 10666 10662 10658 10655 10652 10649 10643 10640
10728 10731 10734 10742 10755 10760 10762 10758 10750 10741 10743 10744 10744 10739 10737 10737 10735 10733 10732 10730 10725 10721 10717 10714 10711 10707 10702 10697 10691 10686 10682 10678 10675 10672 10670 10668 10666 10662 10658 10655 10653 10649 10647 10644 10641 10638 10635 10630 10625
10709 10711 10717 10726 10741 10744 10753 10749 10743 10729 10725 10726 10726 10728 10730 10732 10727 10722 10719 10716 10713 10710 10706 10701 10698 10694 10691 10687 10682 10677 10673 10669 10667 10662 10658 10656 10654 10650 10643 10639 10637 10635 10631 10629 10627 10624 10619 10614 10609
10687 10700 10704 10705 10723 10726 10734 10741 10730 10719 10713 10709 10703 10705 10715 10722 10718 10712 10708 10703 10700 10697 10694 10691 10687 10682 10678 10674 10671 10667 10663 10659 10654 10651 10647 10646 10643 10638 10634 10629 10625 10622 10618 10614 10610 10606 10602 10597 10591
10677 10686 10687 10689 10703 10699 10719 10732 10719 10710 10703 10694 10687 10682 10693 10704 10702 10700 10698 10693 10690 10686 10682 10678 10675 10671 10666 10662 10658 10654 10649 10646 10643 10638 10635 10632 10628 10623 10620 10615 10611 10606 10601 10596 10592 10587 10582 10577 10572